星链-4603 (STARLINK-4603 )

导读 | 星芒AI

STARLINK-4603 是 SpaceX 星链计划中的一颗低轨通信卫星,属于第四批星链组网卫星。该卫星于2023年发射,部署在约550公里高度的近地轨道,主要用于提供全球宽带互联网服务。作为星链星座的一部分,STARLINK-4603 采用先进推进系统和激光通信技术,支持高速、低延迟的网络连接。它服务于偏远地区及对网络稳定性要求较高的用户,助力实现全球互联网覆盖目标。

基本信息
目录编号:
53625
目录名称:
STARLINK-4603
国际标识:
2022-104AP
轨道中心:
EARTH
卫星名称:
星链-4603
卫星全名:
星链-4603 (STARLINK-4603 )
卫星状态:
已陨落 最后检测时间 2024-12-31
发射日期:
2022-08-28 UTC
国别 :
美国 (US)
星等 :
--
轨道信息
数据来源 国际轨道数据
星历时间: 2024-12-31T17:12:29+0800
轨道信息已过期308天
半长轴: 6528.36km
偏心率: 0.0002962
轨道倾角: 53.199°
近地点辐角 148.817°
升交点赤经 358.081°
平近点角 319.110°
近地点: 148.291km
远地点: 152.159km
周期: 87.491分钟
每日圈数: 16.458743
详细信息
固有亮度:
5
最大亮度:
2.5
卫星平台:
Starlink v1.5
覆盖范围:
全球
运营商:
太空探索技术公司
运营商所在国:
美国
制造商(研发单位):
太空探索技术公司
制造商所在国:
美国
使用方式:
暂无
卫星简介
星链(Starlink)计划是由太空探索技术公司(SpaceX)提出的一个巨型低轨卫星互联网星座项目,计划在2019年至2024年间在太空搭建由约1.2万颗卫星组成的“星链”网络,其中1584颗将部署在地球上空550千米处的近地轨道,并从2020年开始工作。该卫星仍在工作。